Theta_e
332 336 338 342 341 337 335 337 337 338 337 338 338 336 336 336 333 332 334 335 337 338 338 338 335 335 337 337 334 328 328 332 334 337 340 342 341 338 336 336 341 343 340
329 337 338 342 339 338 335 334 333 335 338 338 338 338 337 336 335 334 336 339 339 338 336 334 333 333 333 333 328 326 325 327 333 333 339 340 340 337 334 332 332 333 336
328 338 339 342 339 338 337 335 331 331 336 337 336 335 336 336 335 334 337 338 338 336 334 332 332 332 330 330 326 326 326 325 326 333 333 337 340 339 333 330 327 328 329
329 337 340 340 340 339 338 335 332 331 334 335 335 334 334 332 333 334 335 336 336 334 332 329 327 325 325 323 323 323 325 326 325 325 330 334 336 337 337 333 330 327 330
330 335 339 337 339 338 337 336 333 332 335 334 334 334 333 332 331 332 332 333 333 332 329 326 322 321 320 319 319 321 323 323 324 325 328 332 334 336 336 335 335 332 329
330 333 335 333 335 336 336 336 334 335 335 334 333 332 331 331 330 329 330 331 330 328 325 321 319 315 312 310 308 308 312 316 319 323 326 329 333 333 334 335 335 334 334
331 333 335 331 332 334 334 334 334 335 335 333 332 331 330 330 329 327 327 328 326 323 320 317 316 307 302 300 300 299 300 303 310 316 321 326 328 329 331 333 332 332 332
331 333 335 332 333 332 334 334 335 335 334 332 331 329 330 329 327 324 325 323 321 317 317 316 309 307 302 299 299 299 299 300 303 308 315 321 323 325 326 327 328 328 328
331 333 334 334 332 333 334 333 334 335 333 331 330 328 328 328 324 321 321 319 318 317 317 314 310 305 300 298 298 298 298 298 302 303 308 313 318 321 322 322 323 325 325
331 332 333 334 334 333 332 333 333 332 332 331 330 327 327 323 320 318 316 317 317 317 314 310 306 302 299 298 298 298 297 297 298 300 305 308 311 316 318 318 319 320 321
327 329 331 332 332 331 331 330 331 329 330 329 329 327 326 320 318 317 316 316 317 314 310 306 301 298 298 298 298 297 297 297 297 299 303 298 307 313 314 315 316 317 318
325 326 327 329 329 330 330 329 330 330 329 329 328 325 322 318 317 315 314 315 316 311 308 303 298 297 298 297 297 297 297 297 296 296 299 295 300 309 312 314 315 316 317
323 324 324 325 327 328 328 328 328 330 327 328 325 322 319 315 313 312 314 314 313 309 307 303 297 296 297 297 297 296 296 296 296 295 296 295 300 308 311 312 315 317 316
321 322 323 323 324 325 326 326 326 326 326 324 322 319 315 313 312 311 313 312 311 307 304 299 296 296 296 296 296 296 296 295 295 295 295 295 298 308 312 313 314 315 315
318 319 321 321 322 323 324 324 324 324 323 322 320 316 314 312 310 309 310 309 308 303 300 296 296 296 295 295 295 294 294 294 294 294 297 295 303 310 312 313 314 315 315
315 317 318 319 320 321 322 322 322 321 321 320 317 315 312 309 307 306 307 306 304 301 297 296 296 295 294 294 294 294 294 293 294 294 298 301 307 309 311 313 314 314 315
313 314 316 317 318 319 320 320 320 319 319 318 316 314 312 309 305 302 303 303 301 297 295 295 295 294 294 294 294 293 293 293 294 294 297 303 306 308 310 312 314 315 312
311 312 313 313 314 317 318 318 318 318 316 315 315 312 311 309 305 301 301 300 299 295 295 295 295 294 295 295 294 294 293 293 293 294 296 302 303 306 307 308 307 306 306
311 311 310 311 313 314 316 317 317 316 315 314 313 311 309 308 305 302 300 299 297 295 294 295 294 295 295 295 294 293 293 294 293 294 296 298 299 298 298 305 305 304 301
310 310 309 309 310 312 314 315 315 314 314 313 312 310 308 307 305 301 299 298 296 295 294 294 294 294 295 294 292 293 293 293 292 294 293 294 294 294 293 293 292 293 294
309 308 308 308 307 309 311 312 313 312 312 311 311 309 307 306 305 302 299 297 296 295 295 294 294 293 293 293 294 293 292 292 292 292 292 292 291 291 291 290 290 290 294
308 307 306 306 306 306 309 310 311 310 310 309 309 307 306 304 303 301 299 297 296 295 294 294 293 294 294 293 296 297 297 293 292 291 291 291 290 289 288 288 288 288 291
305 304 304 304 304 304 306 307 307 304 306 306 306 305 303 302 301 302 299 297 296 295 294 294 293 294 294 292 294 299 298 301 295 291 291 290 289 289 289 287 287 287 289
301 301 301 302 302 302 303 304 305 304 304 304 303 303 302 300 300 300 298 297 296 295 294 293 293 293 295 294 292 292 293 296 299 295 291 290 289 289 288 288 288 287 288
299 299 300 300 300 300 301 302 302 303 304 303 302 302 300 299 299 298 297 296 296 295 294 294 293 293 293 295 294 292 292 292 293 298 297 292 290 289 289 288 288 288 288
299 298 297 298 298 298 299 300 300 301 302 302 300 300 299 298 297 297 296 296 295 295 294 293 293 292 292 293 294 294 294 294 294 295 297 294 293 290 289 287 287 288 287
Wind_Speed
18 20 25 21 19 18 17 16 15 13 11 10 9 8 8 8 8 8 8 8 9 9 8 9 9 5 6 6 5 7 8 9 10 12 13 15 12 12 12 11 13 11 12
20 22 27 24 21 19 17 16 15 13 13 12 11 11 8 6 7 6 8 10 10 7 7 5 5 6 4 3 2 5 6 7 8 9 12 11 11 9 10 10 10 9 9
21 23 26 25 22 20 19 17 15 14 12 11 10 9 8 9 7 5 8 10 9 6 4 4 5 4 4 3 2 4 4 5 6 6 7 6 7 8 7 8 9 10 9
20 23 24 26 24 22 20 18 16 14 14 11 9 7 7 6 7 7 8 8 6 4 3 4 5 4 3 2 3 4 3 4 4 5 5 5 5 5 4 6 6 8 9
19 20 21 27 25 23 20 18 17 16 15 11 11 9 9 9 7 6 9 7 6 5 4 4 3 3 2 1 2 2 3 3 3 4 5 4 4 5 5 5 6 6 7
18 18 19 25 24 23 21 18 17 19 16 15 14 13 11 10 9 7 7 8 8 8 6 4 4 4 3 3 3 3 3 3 3 4 5 5 4 5 7 6 7 8 8
21 20 18 23 22 22 22 20 19 19 18 18 16 13 13 13 11 9 9 9 9 7 6 6 5 3 2 1 1 2 3 3 3 3 4 5 5 5 6 6 6 6 7
20 21 21 25 23 22 22 21 21 22 21 20 16 15 15 15 13 11 11 10 9 7 7 7 5 5 4 4 4 4 4 4 4 4 4 4 6 5 4 2 2 2 1
18 20 20 22 26 24 21 23 22 21 21 21 17 15 16 16 14 13 12 11 10 10 10 9 8 6 4 4 4 3 4 4 4 4 4 3 4 4 4 1 1 0 1
18 20 21 21 23 23 23 24 24 22 23 21 19 17 19 18 16 14 14 12 11 11 11 10 8 6 3 2 2 2 3 2 4 4 5 2 4 4 5 3 1 1 1
19 22 22 23 23 24 23 24 25 23 23 23 22 23 22 15 14 14 13 14 13 11 11 9 8 6 4 3 1 1 1 3 3 3 3 1 2 3 3 3 3 4 4
24 26 25 25 25 24 24 23 25 25 26 24 22 22 20 17 15 15 15 17 16 14 12 11 9 6 4 3 3 1 1 1 2 2 2 2 0 1 2 2 3 5 6
24 24 29 27 27 26 25 23 23 25 25 24 24 23 22 19 19 18 15 16 14 15 10 10 9 8 7 6 4 3 2 2 1 1 2 2 1 1 2 3 5 6 6
23 26 25 28 28 28 26 26 24 25 27 26 26 27 25 23 20 19 18 18 16 15 14 13 12 10 9 7 6 4 3 2 2 1 2 3 3 3 4 5 5 7 8
25 25 27 28 31 29 29 28 28 28 28 26 25 29 28 24 24 22 20 19 18 19 17 15 13 12 10 8 6 5 4 3 2 2 2 3 8 5 6 7 7 9 9
24 26 25 29 31 30 33 31 31 29 29 29 28 31 34 29 27 24 22 22 21 21 18 16 14 13 11 9 7 6 4 3 3 4 4 4 11 8 8 8 9 10 12
25 23 28 31 32 35 35 35 34 32 31 31 31 34 36 35 31 29 26 26 24 23 21 18 16 13 11 10 8 7 6 5 4 6 7 7 8 12 11 9 9 10 10
23 25 27 33 37 36 37 36 34 32 33 31 29 31 37 37 33 31 27 27 27 26 24 20 17 14 10 9 7 6 5 5 6 7 8 8 8 9 13 13 11 11 8
25 25 26 28 31 36 36 32 32 30 32 31 30 30 34 38 36 31 29 28 29 26 24 20 18 15 12 10 8 5 5 5 5 6 8 9 10 8 7 11 9 10 6
21 21 22 23 26 27 26 29 28 29 30 30 31 32 33 38 38 35 30 29 31 28 24 23 19 16 13 11 8 6 5 6 6 6 8 9 10 10 8 9 8 6 6
15 16 17 19 21 23 25 27 29 31 28 30 31 30 31 37 40 41 34 30 31 31 32 27 21 21 15 15 13 6 4 6 7 8 9 9 10 10 9 9 8 7 5
13 12 14 15 16 20 21 24 24 22 25 26 26 26 30 32 38 39 35 36 38 33 29 29 28 20 14 22 11 9 4 4 7 9 9 9 9 9 9 9 8 8 8
19 18 13 10 11 13 15 15 17 14 14 16 22 23 24 27 33 43 41 38 40 39 39 39 35 26 21 21 17 6 3 4 10 9 12 11 9 7 7 7 8 9 11
25 19 17 11 5 6 11 14 18 18 20 20 19 21 23 27 30 34 39 39 42 45 34 37 38 33 24 21 18 18 8 5 4 4 12 14 13 10 8 7 7 10 11
33 28 24 18 11 3 5 11 12 17 17 16 14 18 23 23 30 30 32 34 37 39 41 43 39 33 29 23 22 14 13 8 6 3 4 11 16 16 12 10 9 10 12
31 30 28 24 18 10 4 5 10 14 15 15 14 15 15 19 23 31 37 37 36 36 39 42 43 44 38 25 24 20 18 11 14 7 3 9 12 15 16 12 12 12 12
Wind_Direction
194 175 178 175 178 178 176 172 169 164 161 159 149 140 141 134 136 131 130 126 125 122 120 104 95 102 93 89 86 87 94 95 93 89 91 97 91 84 77 78 72 64 65
178 176 178 178 183 181 179 179 176 169 168 163 152 152 151 149 135 146 132 134 140 132 125 133 147 138 136 135 96 98 110 104 103 105 103 82 84 78 73 67 69 65 69
175 174 180 178 185 186 184 185 183 177 169 166 171 177 165 162 151 161 157 153 152 153 167 162 117 122 160 176 106 109 117 116 116 117 115 90 69 65 63 61 58 60 65
175 177 180 184 183 188 191 193 192 188 183 182 185 193 179 182 171 168 170 175 162 155 188 149 130 123 127 140 140 137 133 130 123 124 89 90 84 70 68 59 62 63 60
179 181 185 191 190 193 199 197 195 195 183 188 202 204 204 202 177 179 187 181 168 161 158 142 144 153 172 208 238 207 177 159 132 102 91 97 99 66 86 83 59 63 71
183 187 193 191 196 199 200 201 203 194 186 196 200 206 205 203 201 198 186 181 169 168 162 157 150 187 214 239 260 238 209 180 145 87 83 82 90 84 85 92 102 95 90
184 187 191 192 194 200 206 206 204 195 197 196 204 205 212 214 210 204 184 176 174 178 183 158 172 193 189 170 133 116 165 160 145 114 95 84 73 79 78 81 82 89 84
189 188 189 194 195 201 204 204 204 202 200 201 203 203 212 212 202 195 186 182 184 191 170 167 159 140 128 118 103 101 105 116 118 108 113 89 90 67 75 90 133 117 83
195 195 196 198 199 200 200 207 206 204 202 205 208 205 207 202 197 194 192 188 179 168 165 157 150 144 140 130 113 102 92 93 91 98 83 72 94 56 49 355 290 104 309
198 203 204 202 203 204 207 208 208 212 214 209 207 208 206 209 205 200 198 186 175 172 164 163 156 156 162 137 114 93 76 104 87 79 62 43 70 49 45 48 15 321 280
207 207 207 207 206 205 208 210 209 210 210 211 209 209 213 202 206 204 192 193 180 177 172 169 174 179 175 166 145 72 23 54 52 51 45 151 79 47 46 47 62 73 66
212 210 208 208 209 208 209 208 208 214 211 208 204 206 202 200 196 192 194 187 191 184 177 181 190 184 171 148 146 149 108 72 39 16 338 306 64 61 72 98 92 91 96
221 214 210 208 208 208 211 209 207 205 203 203 203 199 198 197 200 194 188 188 190 190 177 185 187 181 179 172 171 164 149 107 68 327 303 280 92 109 133 116 116 116 105
221 220 217 212 209 209 209 209 210 208 204 203 203 203 202 200 197 193 193 191 190 189 192 192 191 189 184 183 178 173 173 163 190 234 297 258 170 129 127 131 129 118 113
230 224 218 213 212 210 210 210 210 210 209 209 205 208 206 202 200 196 196 195 196 199 197 194 191 189 187 183 179 176 177 180 185 179 165 160 121 130 139 137 133 123 115
234 230 222 219 217 212 213 212 212 211 211 208 208 211 210 206 204 200 198 199 201 201 200 195 193 189 186 184 182 179 181 192 180 167 149 127 134 131 136 137 139 134 127
239 234 225 222 218 216 217 215 213 212 209 210 211 212 212 210 207 203 202 201 202 202 200 197 194 191 187 186 188 189 185 187 175 164 153 139 124 135 126 123 124 137 131
242 233 234 228 224 219 219 217 216 215 213 214 212 213 214 213 209 204 203 203 202 201 199 197 194 191 189 188 185 190 186 174 173 170 156 149 141 136 142 139 127 98 104
257 248 238 228 225 222 221 218 218 218 219 217 214 213 214 213 211 207 206 205 204 200 199 194 192 189 186 183 179 171 166 164 158 161 159 158 166 159 160 172 172 168 141
266 254 246 234 229 225 222 219 221 221 221 220 219 217 212 214 212 209 209 208 204 200 197 197 193 188 187 178 160 149 158 174 174 166 165 167 172 172 173 180 182 186 155
282 269 253 237 229 215 215 215 216 220 221 223 220 219 216 215 213 211 209 206 205 204 203 198 188 188 181 173 146 140 135 178 192 189 180 177 182 183 191 198 202 194 149
328 319 295 261 246 229 220 217 218 229 233 232 229 227 220 215 214 213 209 207 207 203 203 200 194 183 188 185 182 161 175 188 212 204 193 188 187 190 196 200 201 192 169
15 360 336 295 256 232 229 229 223 231 229 232 232 231 226 222 219 219 215 212 210 208 204 204 200 192 184 196 195 197 163 210 163 193 200 197 192 193 195 203 202 188 172
32 21 12 359 313 235 219 222 224 231 225 229 233 233 226 222 221 223 219 216 214 212 208 209 207 202 191 185 200 216 200 154 184 171 209 208 204 206 207 211 204 193 180
29 24 24 26 26 354 258 236 235 242 256 260 245 223 217 223 223 222 221 218 216 214 212 212 210 207 206 201 193 181 202 196 203 177 169 192 215 217 215 213 204 194 186
30 26 26 26 26 20 354 273 263 266 263 252 242 234 229 229 227 222 218 216 219 220 218 217 216 212 210 211 209 209 190 182 193 179 164 181 200 203 207 206 204 199 194